GFSMW_sfc_temp_084.txt.gz
Temp
84 87 88 86 84 82 80 77 71 73 69 67 67 66 67 66 65 67 66 67 65 64 65 64 64 63 62 62 63 69 70 71 74 71 67 70 70 70 71 71 75 77 76
82 85 86 84 80 80 78 75 71 70 71 73 72 69 67 67 70 71 73 72 69 68 64 62 62 62 62 61 61 66 67 70 73 69 68 58 64 67 69 71 72 74 76
79 82 84 83 79 78 77 72 70 72 71 74 70 71 69 66 65 68 70 67 65 64 64 63 61 62 61 59 60 65 68 68 72 73 70 60 62 65 68 69 69 71 72
80 83 84 84 79 78 77 72 71 74 70 72 70 69 70 64 70 65 65 67 65 63 62 62 62 61 61 60 60 66 70 72 68 71 73 75 76 67 62 71 71 72 71
80 82 84 86 83 79 76 72 69 71 70 68 73 71 70 69 72 64 63 62 60 61 60 60 60 60 60 60 61 65 69 71 70 70 70 71 73 73 71 66 68 72 74
75 78 82 84 81 79 75 67 66 67 68 68 73 70 69 69 68 62 60 60 60 60 59 58 59 59 59 59 61 68 68 69 70 70 70 69 67 69 69 69 69 68 71
73 74 76 77 76 74 68 63 64 64 65 72 73 69 69 69 66 62 59 59 59 58 59 59 57 58 59 60 60 63 66 67 68 68 69 70 69 71 70 69 68 67 70
69 73 75 74 74 73 63 62 63 63 64 72 70 66 70 69 66 65 65 63 61 60 60 59 60 59 59 59 61 61 63 66 66 66 67 68 70 70 70 69 66 64 67
62 69 74 73 72 71 61 62 63 64 63 69 65 64 69 67 65 65 68 68 68 65 60 61 59 59 59 59 59 59 60 62 64 67 68 68 67 69 68 64 64 66 59
54 60 70 70 72 68 63 64 69 64 64 65 64 63 67 69 68 68 66 67 67 64 63 60 60 58 59 59 60 58 60 60 60 60 61 65 67 68 65 68 62 60 56
49 52 65 68 68 66 65 64 67 63 63 66 65 64 65 66 66 66 67 67 67 65 64 60 59 58 58 58 59 59 59 59 59 60 60 59 61 60 60 61 58 56 56
47 48 51 62 62 62 61 61 63 62 63 65 65 65 67 65 63 64 68 69 68 67 66 63 59 59 59 58 58 58 59 60 60 59 59 59 59 58 59 58 57 57 58
44 45 46 48 54 58 59 59 60 61 62 62 62 63 63 62 62 62 66 66 65 66 66 65 63 61 60 60 59 60 60 61 60 61 59 60 59 59 60 58 58 58 59
41 42 42 43 45 48 50 54 58 60 61 62 62 61 60 61 61 61 64 62 62 62 64 64 63 62 62 61 60 59 59 60 61 60 61 60 61 60 60 58 59 58 59
38 38 39 40 41 43 45 47 49 52 55 54 53 52 53 55 58 60 62 65 65 65 66 65 63 63 63 50 48 63 62 61 60 62 64 64 61 54 58 62 61 63 61
36 37 37 38 38 39 40 42 44 46 48 48 47 49 49 49 49 50 50 50 50 48 48 48 50 43 45 37 38 43 60 62 62 61 62 63 53 53 45 46 46 51 58
35 35 36 35 36 36 38 37 40 43 43 43 44 45 46 45 45 46 44 42 42 43 42 42 41 39 38 36 38 37 48 52 43 42 43 46 45 41 44 42 36 36 35
34 34 35 34 35 36 37 38 39 39 39 40 41 42 43 42 43 42 41 39 39 37 37 37 38 37 37 36 38 38 42 38 36 36 36 36 36 37 37 43 36 33 33
32 33 34 34 36 36 36 36 36 36 38 36 37 39 40 40 40 38 38 38 37 35 35 35 35 35 34 36 38 39 36 34 33 33 34 34 33 34 38 39 32 31 29
32 32 33 34 36 37 38 36 35 35 34 34 35 40 37 38 38 38 37 37 37 35 35 34 35 35 35 35 36 37 35 32 32 32 32 33 33 33 34 33 31 27 26
32 33 32 32 32 37 37 35 34 33 36 36 37 39 39 38 39 39 40 39 38 37 36 35 34 34 34 34 34 37 37 34 32 31 31 32 32 32 33 32 32 30 31
35 36 35 34 37 37 35 33 33 35 35 36 36 36 37 38 39 39 39 40 39 37 36 35 34 34 33 32 32 32 33 34 33 30 31 30 30 30 31 32 32 33 33
32 34 34 34 35 36 37 33 32 34 35 35 35 34 36 38 39 38 38 38 39 37 35 35 33 32 33 33 31 30 30 31 30 30 29 30 30 31 30 29 30 31 32
32 33 32 32 31 33 34 35 36 37 35 35 33 33 33 34 36 35 35 35 35 34 33 33 32 31 31 31 33 33 33 31 32 31 31 30 30 30 30 30 30 30 30
32 33 31 30 30 31 31 33 36 37 35 34 33 32 32 30 29 28 30 29 29 30 30 29 30 29 27 27 28 29 30 31 30 31 32 31 31 30 30 29 28 29 29
31 31 31 30 29 29 29 29 32 33 32 31 31 32 32 31 31 29 26 27 28 28 28 28 29 28 27 27 27 26 26 27 30 30 28 27 27 27 27 27 26 26 25

GFSMW_sfc_temp_087.txt.gz
Temp
87 89 90 91 92 91 89 86 79 78 79 74 71 73 68 71 69 69 68 68 68 68 67 66 66 64 66 65 65 63 62 62 70 68 68 67 68 71 73 77 78 77 76
84 86 88 90 88 87 86 85 80 79 76 75 77 76 74 74 74 73 69 68 65 65 64 64 64 64 64 63 62 63 62 63 69 68 64 59 61 65 69 72 73 75 77
81 84 86 88 86 85 84 84 81 80 76 77 79 77 75 73 70 68 70 73 71 71 68 68 64 62 64 62 61 62 63 61 67 71 68 60 60 63 66 67 69 70 75
82 84 85 86 86 84 84 84 82 80 78 79 78 74 72 70 72 73 75 73 72 71 70 67 64 63 62 61 61 63 63 64 66 67 72 72 74 64 59 68 69 71 72
82 82 84 87 90 86 83 82 80 79 78 78 77 75 74 76 76 74 69 69 68 67 67 63 63 62 61 61 61 61 62 63 68 67 70 70 73 71 67 62 64 67 73
79 82 85 86 89 88 83 80 77 78 75 77 76 75 74 74 72 69 66 65 65 63 61 60 61 61 60 60 60 61 62 63 67 69 70 70 68 69 70 65 66 66 71
70 75 80 83 85 85 81 77 73 73 73 75 76 75 75 73 72 69 67 62 61 60 58 58 58 59 60 60 60 61 62 63 65 68 68 72 71 72 72 70 65 66 71
67 68 74 80 83 84 80 71 68 68 69 74 77 75 74 74 73 70 65 63 62 62 60 59 58 58 59 59 59 60 61 62 65 66 66 68 70 72 72 71 67 65 68
63 62 65 79 80 80 67 65 65 66 68 76 76 73 73 71 71 70 68 65 66 64 61 60 59 58 58 59 59 58 58 61 64 65 64 66 68 70 71 72 71 68 62
59 55 61 65 77 70 66 63 65 66 69 76 74 71 71 70 71 71 69 67 67 65 64 60 61 58 58 58 59 58 59 59 59 62 63 66 68 67 65 70 67 66 64
55 49 51 53 66 67 65 62 64 65 67 73 70 69 68 68 69 67 67 69 69 69 67 63 60 59 59 58 58 58 58 58 58 60 61 61 63 64 67 66 68 66 63
52 46 46 48 60 63 63 63 63 65 66 70 67 67 67 67 66 66 68 69 69 68 65 66 61 59 59 58 58 58 59 58 58 60 59 59 58 58 60 60 60 60 61
49 44 43 43 45 52 61 61 62 63 64 66 65 64 63 63 64 65 65 66 65 66 67 64 61 60 59 58 59 60 61 58 60 60 60 59 59 59 59 59 58 59 58
45 41 40 40 41 44 47 49 58 62 62 63 63 62 62 63 63 64 64 66 66 64 64 65 64 61 60 60 59 59 58 59 61 61 62 62 59 60 61 60 58 59 57
42 38 37 37 38 40 42 44 46 51 56 54 53 53 54 59 60 58 55 61 59 60 61 62 62 59 49 44 46 55 58 60 59 59 60 61 58 52 55 60 60 60 58
38 37 36 36 36 37 38 40 42 44 48 48 48 49 49 50 49 48 48 47 46 46 46 46 45 44 43 37 38 43 55 53 53 54 52 51 44 43 38 37 38 38 45
35 35 34 34 35 35 37 36 39 41 43 44 44 44 45 44 44 43 42 41 40 41 40 40 40 39 38 37 39 40 48 43 41 40 41 43 42 40 43 36 35 34 34
34 34 34 34 34 35 36 36 38 38 38 39 41 42 41 41 41 40 38 37 37 36 36 36 36 36 37 37 37 37 38 36 35 35 35 36 36 37 39 36 32 31 32
32 33 33 33 33 35 34 34 34 35 36 35 37 39 39 38 37 36 36 36 35 35 35 35 35 34 35 37 37 37 35 34 33 33 34 34 33 35 38 34 30 29 28
32 32 32 33 33 33 34 33 32 32 32 32 34 36 37 37 35 34 35 36 36 35 35 34 35 35 33 36 36 37 35 32 31 32 32 33 33 35 35 33 31 28 29
32 34 32 31 32 33 34 32 32 32 32 33 34 36 37 36 35 36 38 38 38 37 36 36 35 34 34 34 35 37 37 35 33 31 30 32 33 33 34 34 32 31 33
33 34 33 32 32 32 32 32 32 34 35 34 36 36 37 39 38 39 39 39 38 37 36 35 34 34 33 32 33 33 34 35 33 30 31 31 32 32 32 32 33 33 34
32 35 34 33 34 34 34 30 31 35 36 36 36 36 35 36 37 37 37 38 39 37 35 34 33 32 33 32 32 31 31 32 31 31 31 32 32 32 31 31 32 32 32
32 33 32 30 31 34 35 35 35 35 33 32 32 32 32 33 34 33 31 30 33 33 33 33 32 31 30 31 32 33 33 32 32 32 32 31 32 32 32 32 32 32 31
35 34 33 32 31 32 32 35 39 39 35 35 34 32 30 29 27 27 29 29 28 29 30 28 29 28 26 26 28 30 31 31 31 32 33 32 32 31 31 31 30 30 30
30 31 31 31 30 30 30 30 33 35 33 32 33 33 33 32 31 28 25 28 28 28 28 28 29 27 27 28 28 29 29 31 32 32 29 28 29 28 29 28 28 27 26

GFSMW_sfc_temp_090.txt.gz
Temp
81 84 83 83 84 84 84 78 76 75 75 74 72 71 68 69 66 68 68 68 69 67 66 65 65 65 64 64 63 62 61 60 62 60 59 63 65 65 65 67 69 67 67
79 81 82 80 78 80 80 78 76 75 74 75 72 72 70 69 68 67 67 67 68 66 65 64 63 63 63 63 63 62 60 60 61 59 60 55 58 62 64 64 65 68 68
77 79 80 78 77 78 79 79 77 75 75 74 73 72 70 69 67 66 67 66 66 66 65 64 63 63 63 63 63 62 61 59 60 62 63 55 53 56 61 61 61 63 65
79 79 80 79 78 77 77 81 78 75 74 73 73 70 67 66 67 67 68 67 67 65 65 65 64 63 63 62 62 63 62 61 58 59 66 65 63 56 53 59 61 62 64
73 76 77 79 80 79 77 78 78 77 73 72 73 71 68 68 68 68 67 67 66 67 66 65 65 63 62 62 63 61 61 61 60 60 61 62 62 64 58 54 58 60 62
70 71 74 79 81 79 78 76 76 76 74 73 73 70 68 68 68 66 64 63 62 62 62 62 62 62 62 61 62 62 61 61 61 61 62 63 60 60 61 56 58 58 61
67 66 68 69 68 77 76 76 76 74 74 73 72 70 70 69 67 66 64 62 60 59 59 60 59 60 61 61 61 61 61 61 60 60 62 65 65 65 64 60 60 58 59
64 63 65 66 61 74 76 75 74 73 71 72 71 72 71 69 68 67 65 62 62 60 60 58 58 59 60 60 60 60 60 60 60 60 61 65 63 63 63 62 59 56 57
61 58 60 60 58 70 74 72 70 71 69 71 71 70 69 68 67 66 65 64 63 63 60 59 58 58 58 59 59 59 59 59 60 60 60 61 61 63 63 63 62 59 54
57 53 55 54 60 67 66 65 68 68 67 71 70 69 68 67 67 66 63 64 64 63 61 59 59 58 58 58 58 58 59 59 60 60 59 60 61 61 61 63 61 59 57
52 49 49 49 51 59 65 65 64 65 65 68 68 67 68 67 66 65 66 65 63 63 62 60 59 58 57 58 57 57 57 57 57 57 57 58 59 58 59 60 60 59 58
51 47 45 45 46 47 51 63 62 62 64 63 66 65 64 65 65 64 65 65 64 64 62 61 60 59 58 57 57 56 56 55 55 56 56 56 57 57 58 58 58 58 59
48 44 42 41 42 43 45 47 60 61 62 61 62 61 62 62 62 62 63 64 64 63 63 62 59 58 58 57 56 57 56 55 55 56 56 57 56 56 56 56 56 56 56
44 42 39 38 39 40 42 43 47 59 60 60 60 61 61 60 60 61 62 61 63 62 62 61 60 59 58 58 58 57 57 57 56 57 58 58 57 57 57 57 56 57 56
40 39 36 36 37 38 39 40 42 48 53 53 52 52 52 54 54 52 54 54 53 51 51 49 49 48 45 43 46 56 56 56 56 57 58 56 48 42 45 55 57 56 55
36 36 35 35 35 36 36 38 39 42 46 47 47 47 48 47 46 45 45 45 44 44 44 42 42 41 44 38 39 45 49 50 49 48 48 44 42 38 36 36 35 37 43
32 33 33 33 34 34 35 35 37 40 41 42 43 43 43 42 41 41 40 40 39 39 38 39 39 38 38 37 39 40 42 39 39 38 40 41 41 41 37 35 34 34 34
32 32 32 33 34 34 34 36 36 36 36 38 39 40 40 38 38 38 37 36 36 36 35 35 36 36 36 36 36 36 36 35 34 35 35 35 36 38 36 34 32 31 32
31 31 32 33 33 33 33 34 34 34 34 33 34 37 38 36 36 35 35 35 35 34 34 34 34 34 34 36 36 35 34 32 32 33 33 34 33 35 36 33 30 29 29
32 31 32 32 32 32 33 33 32 32 32 32 32 34 36 36 34 34 34 35 34 33 32 31 32 33 33 36 36 35 33 31 30 31 32 34 33 34 34 32 31 29 30
32 33 32 31 31 32 33 32 31 31 32 32 32 33 34 34 34 35 35 35 34 33 31 30 30 31 32 33 36 36 34 31 29 29 29 31 34 34 34 34 32 31 33
33 33 32 31 32 32 32 31 31 32 33 32 32 32 32 33 34 33 34 34 33 32 31 31 30 30 31 32 33 33 33 33 30 28 29 30 33 33 33 32 33 33 32
32 33 32 32 32 32 33 30 31 32 31 30 30 30 31 31 31 29 30 32 33 32 31 30 28 28 30 30 32 32 32 32 29 29 31 32 33 32 30 32 32 27 29
31 32 30 29 29 31 32 32 32 32 31 29 28 28 27 27 28 28 27 27 29 28 29 29 26 25 25 26 29 31 31 31 31 30 31 30 30 26 24 26 26 25 23
31 31 29 28 28 30 30 32 35 36 32 31 30 28 27 25 25 25 25 25 26 28 25 24 25 23 22 25 29 29 28 29 30 31 30 29 27 24 23 23 23 22 22
29 28 28 27 27 29 29 29 32 33 32 31 31 31 30 28 26 24 23 28 28 28 28 29 26 25 27 29 30 31 32 32 32 28 25 23 21 21 20 19 19 20 19

GFSMW_sfc_temp_093.txt.gz
Temp
72 75 73 73 78 80 73 74 72 71 71 70 67 65 63 63 63 64 66 68 66 64 63 63 62 63 63 62 62 62 61 60 61 59 58 59 64 64 65 65 63 63 63
73 76 77 73 72 78 71 73 72 71 72 72 70 66 64 61 62 65 66 66 64 63 63 63 63 63 61 61 62 62 60 61 62 58 57 54 58 60 61 64 65 62 64
70 74 76 76 71 71 67 72 72 72 72 69 67 65 63 61 59 60 62 65 66 64 63 64 63 63 63 62 62 62 61 59 60 60 57 54 54 57 57 58 62 61 61
64 68 71 72 70 70 72 72 72 71 70 70 69 65 64 60 60 61 62 65 65 65 63 63 63 63 63 62 62 62 61 61 58 59 62 62 60 56 52 56 57 61 63
62 62 64 64 67 68 72 72 71 71 70 69 68 64 61 60 61 60 61 62 62 64 63 63 61 62 62 63 63 62 61 61 60 60 60 60 61 60 55 51 56 57 60
61 62 64 64 64 63 70 72 70 70 69 68 67 65 63 61 62 60 59 60 62 63 62 63 63 62 62 62 62 63 61 60 61 61 61 60 60 59 57 54 56 58 57
57 57 57 57 58 58 60 68 70 66 67 68 66 68 67 63 61 60 60 58 58 58 59 59 59 60 62 62 62 62 62 61 60 60 59 61 61 64 61 57 56 55 56
54 52 54 53 52 59 59 66 68 65 65 66 65 67 68 62 63 61 59 57 57 59 59 58 59 59 59 61 61 61 61 61 60 60 60 60 61 61 61 59 56 53 54
50 49 50 50 50 52 60 63 64 65 65 64 66 67 66 63 61 60 60 59 59 58 58 58 58 58 59 60 60 60 60 61 61 61 60 59 60 60 61 60 60 56 51
47 46 47 47 48 49 54 60 61 61 64 65 65 65 64 63 61 60 59 59 61 61 59 58 57 57 58 58 59 58 59 59 60 60 60 59 59 59 59 59 59 57 55
44 44 44 44 45 46 49 52 59 60 61 63 65 64 63 63 61 60 60 59 61 58 59 59 57 57 57 57 57 58 58 57 58 59 59 59 58 57 57 58 58 57 57
42 42 41 42 42 43 44 46 48 59 59 62 62 62 62 62 62 62 62 62 60 61 60 58 57 57 57 57 56 56 57 58 58 59 58 57 57 56 56 56 57 57 57
40 39 39 38 39 40 41 43 46 50 60 61 60 60 60 61 60 61 62 61 61 61 59 59 58 57 57 56 56 56 56 55 56 56 56 56 56 55 55 56 55 56 55
38 37 36 37 37 38 39 40 42 47 58 59 58 58 59 59 58 59 59 59 58 59 59 58 58 56 56 57 57 56 55 55 55 55 55 55 55 55 55 55 55 55 55
35 35 34 35 36 36 37 39 40 43 48 51 51 51 52 52 51 51 51 50 50 50 51 49 48 47 46 45 50 56 55 55 54 55 54 47 45 41 43 55 55 55 54
33 33 34 34 34 34 36 37 39 42 42 43 44 46 46 45 45 44 44 43 43 43 43 42 42 42 42 39 40 48 48 48 50 46 44 42 39 37 36 36 35 36 45
32 31 32 32 33 33 35 35 37 39 39 38 39 40 41 41 40 40 40 39 38 39 38 38 38 37 37 38 38 39 40 39 38 39 41 41 39 38 36 35 34 34 34
31 31 31 32 32 33 34 36 36 36 36 35 36 37 37 37 38 37 36 36 36 35 35 36 36 36 36 36 36 36 36 35 35 35 36 38 38 36 35 34 32 32 32
30 31 32 32 32 32 33 34 34 34 34 33 34 34 35 35 35 34 34 34 34 33 33 34 34 34 34 35 35 35 33 32 32 34 34 34 34 35 36 33 30 30 31
31 31 31 32 31 32 33 32 32 32 31 32 32 34 34 34 33 33 33 33 32 31 32 31 32 34 33 34 34 34 33 30 30 32 32 33 33 33 33 32 31 29 30
32 32 31 30 31 32 32 31 30 30 31 32 32 32 32 33 33 33 33 33 32 31 30 29 30 31 32 32 33 32 31 30 29 29 30 32 34 35 35 34 32 31 32
31 32 31 30 32 32 31 29 28 29 30 29 30 29 30 30 31 32 32 32 32 30 30 29 29 30 30 32 32 32 32 32 29 28 29 31 34 34 33 32 33 33 32
29 30 30 29 29 32 31 29 29 29 28 28 27 27 27 27 27 27 28 29 31 29 27 27 25 26 28 30 32 32 32 32 29 30 31 32 31 30 29 30 29 25 23
29 29 28 27 27 29 31 32 31 30 29 26 25 26 25 25 26 26 26 26 26 25 26 25 24 24 26 27 29 30 30 30 30 29 29 27 27 25 24 24 24 23 23
28 28 27 27 27 28 29 30 32 32 30 29 27 25 25 24 24 25 25 25 26 25 23 23 23 23 23 27 30 29 29 29 28 27 26 25 24 22 21 21 21 20 20
27 27 26 26 26 27 27 29 30 31 30 29 29 28 26 24 23 23 22 29 29 29 29 28 25 25 29 30 31 32 31 31 29 24 21 20 20 19 19 18 18 18 18

GFSMW_sfc_temp_096.txt.gz
Temp
69 67 68 68 68 69 66 69 69 69 68 66 65 64 64 64 63 64 64 63 64 64 63 62 62 63 62 62 62 61 60 60 61 59 60 58 60 61 63 63 62 61 61
69 71 67 67 67 69 70 70 69 68 68 68 69 66 66 64 64 63 64 64 64 64 65 63 62 63 63 62 62 61 60 60 61 58 57 53 55 58 60 62 62 60 62
67 71 72 67 67 66 69 70 70 69 69 70 67 64 61 60 60 62 64 65 65 64 64 63 62 62 62 61 62 61 61 59 60 60 57 52 51 55 57 59 60 59 60
57 61 61 60 57 58 66 73 70 70 71 69 66 63 64 62 61 62 60 64 65 64 62 62 62 63 62 62 62 62 61 61 58 59 60 58 58 55 52 56 58 58 59
57 57 58 59 60 59 60 69 70 70 70 67 67 64 63 61 61 60 60 60 63 64 63 62 62 62 62 62 62 61 60 61 60 60 58 57 57 57 55 52 53 55 61
53 53 55 55 54 55 57 64 69 69 68 68 66 65 62 60 60 60 59 59 59 61 62 61 62 62 62 60 62 62 60 60 60 61 61 59 57 56 56 55 56 56 56
49 49 48 48 51 51 53 58 66 66 67 67 65 64 62 61 60 60 59 59 61 61 62 62 62 61 61 60 62 62 61 60 59 60 60 61 61 63 61 56 56 56 55
47 46 48 48 48 50 52 56 64 66 64 64 64 63 63 63 62 61 60 60 61 61 59 59 59 60 60 61 62 62 61 61 60 60 60 60 59 61 61 60 56 52 53
44 44 46 46 46 47 49 53 62 63 64 64 62 62 63 62 60 59 60 58 57 57 56 58 58 58 58 59 59 60 61 61 61 60 60 61 60 60 61 59 60 56 51
42 42 44 44 45 46 47 50 56 61 61 61 62 63 61 62 62 60 58 58 57 57 56 57 57 57 58 58 59 59 60 60 60 60 60 60 60 58 58 60 57 57 55
39 40 41 42 43 44 45 46 48 55 59 59 61 61 61 62 62 60 58 58 58 59 59 58 57 58 57 57 58 58 58 58 59 60 60 59 60 58 57 57 57 56 56
38 37 39 40 40 41 41 43 45 49 55 59 60 60 60 61 60 59 59 58 58 60 59 58 57 57 57 57 57 57 57 57 57 59 59 58 58 57 56 56 56 55 56
37 36 35 36 37 39 40 41 42 45 50 58 59 58 60 60 59 59 59 60 60 59 59 58 56 56 57 56 56 56 55 57 58 57 58 58 58 56 55 55 55 55 55
35 35 34 35 36 37 38 39 40 44 48 58 58 58 57 57 57 56 56 56 59 58 58 58 57 57 56 56 56 56 55 55 55 56 56 57 57 55 55 54 54 54 54
33 33 33 33 34 35 36 38 39 42 44 46 50 51 52 52 51 50 49 49 49 49 50 49 48 48 47 46 51 55 54 54 54 49 48 45 44 43 46 54 54 54 53
32 32 32 33 33 33 34 36 37 39 41 41 41 45 45 45 44 44 43 43 42 42 42 41 41 40 41 38 41 49 50 51 49 44 41 40 39 37 37 37 36 37 51
30 30 30 31 32 32 34 33 35 38 38 38 39 40 40 39 39 40 39 38 38 38 37 37 37 36 36 37 38 39 41 40 40 41 41 39 38 37 36 35 35 34 34
29 30 30 31 32 32 33 34 35 35 35 34 35 36 36 35 35 35 34 35 35 35 35 35 35 35 35 35 36 36 36 35 35 36 39 37 35 35 35 34 32 32 32
29 30 31 31 32 32 32 33 32 33 33 33 32 33 35 33 33 32 32 33 33 33 33 34 34 33 33 35 35 35 34 33 33 34 34 34 33 35 37 33 31 30 30
30 30 31 31 30 31 31 30 29 29 30 31 31 33 34 33 32 31 31 31 31 31 32 31 32 33 32 34 34 34 33 31 31 32 33 33 33 34 34 32 31 28 28
30 30 30 30 30 30 30 28 28 27 28 30 30 30 31 32 32 32 32 31 30 30 30 30 30 31 32 32 33 33 31 30 30 30 30 32 34 34 34 33 31 29 30
28 29 28 27 30 30 29 27 26 28 28 28 28 27 28 29 30 31 31 30 29 28 27 28 28 30 31 32 32 32 31 31 29 28 29 30 31 32 31 31 32 31 28
27 28 27 27 28 30 30 27 27 28 27 26 26 26 26 26 27 27 28 27 28 27 26 26 26 26 29 30 31 31 31 30 28 28 28 28 29 29 28 29 28 25 23
26 27 27 26 26 29 30 31 31 29 27 25 24 25 25 25 25 26 26 25 24 24 24 24 24 26 27 28 29 30 30 28 27 26 25 25 24 23 22 22 23 21 20
26 26 25 25 25 27 28 29 31 31 29 28 26 24 24 24 24 25 25 25 25 25 23 23 24 24 25 28 30 29 27 26 26 25 24 22 21 19 19 19 20 20 21
25 24 25 24 24 25 25 26 28 30 29 28 27 25 24 23 23 23 23 29 29 29 28 28 27 27 30 31 31 30 29 28 26 22 19 18 18 17 17 17 17 18 18

GFSMW_sfc_temp_099.txt.gz
Temp
65 66 66 66 64 62 61 67 68 68 68 67 66 65 64 66 65 66 66 66 65 64 64 62 63 64 63 63 63 62 61 60 61 60 59 60 61 61 61 62 62 61 60
63 65 65 63 62 66 62 64 67 67 68 68 68 66 67 66 66 65 64 65 64 64 63 62 63 63 62 62 62 61 60 60 61 58 57 53 55 58 60 61 61 60 61
53 55 57 56 54 56 59 63 67 67 68 68 68 62 62 62 62 62 63 63 64 64 65 63 63 62 63 61 61 62 61 59 60 59 57 52 52 54 57 58 59 59 59
52 53 53 52 52 54 56 58 67 67 68 69 67 64 64 63 64 65 65 62 63 63 64 63 63 62 63 62 61 62 61 61 59 59 59 57 56 53 51 55 56 57 58
50 49 50 51 52 52 54 56 65 69 69 68 68 65 64 65 63 64 60 62 62 63 63 63 62 62 62 62 62 61 60 60 59 59 58 57 56 56 54 52 53 55 57
48 48 51 51 52 53 51 53 60 67 69 68 67 65 64 61 60 60 60 60 61 62 62 62 62 62 62 62 62 62 61 60 59 60 58 59 55 55 55 53 54 55 55
44 45 46 46 48 48 50 51 55 65 67 67 66 64 63 61 60 60 60 59 58 58 61 61 61 61 61 61 62 61 60 60 60 60 59 60 60 61 60 56 55 53 54
44 44 45 46 45 46 48 48 51 63 65 65 64 63 61 61 61 60 60 60 60 60 59 60 60 61 61 60 60 60 61 61 60 60 60 60 59 62 60 58 55 51 52
41 41 42 44 44 44 45 46 50 62 63 64 61 60 60 60 60 60 60 60 60 62 62 62 61 59 59 59 60 60 60 60 60 60 60 60 59 60 60 59 58 56 51
39 39 40 41 42 43 44 46 48 52 61 61 62 61 61 61 60 60 59 58 58 58 57 56 55 56 56 56 58 58 59 59 60 60 60 60 60 59 59 59 59 57 56
38 37 38 40 40 41 43 45 45 48 51 59 60 60 59 59 59 59 58 58 57 57 56 55 54 56 55 57 57 57 58 58 59 59 59 59 60 59 59 59 59 57 56
37 37 37 37 38 38 40 42 43 45 49 53 59 59 59 59 59 59 59 58 58 57 58 57 56 57 56 56 56 56 57 57 57 58 59 59 59 58 57 58 57 57 56
36 35 35 35 35 37 38 39 42 43 46 51 58 58 59 59 58 59 59 59 58 56 58 57 57 56 56 56 56 56 56 56 57 57 58 58 58 57 57 57 56 56 55
35 34 33 33 35 36 36 38 39 42 43 46 56 58 58 58 58 59 59 59 57 58 57 58 57 55 56 56 56 56 55 54 54 56 57 58 58 57 56 56 56 55 55
32 32 31 32 33 33 35 36 37 40 41 42 43 46 51 52 53 51 51 51 51 51 51 50 48 47 46 43 44 54 54 54 50 46 45 44 47 47 51 55 55 55 53
30 31 31 32 32 32 33 35 35 37 39 38 37 40 43 45 43 43 43 44 43 42 42 41 41 40 40 37 39 46 51 49 47 43 42 41 39 37 37 37 36 40 53
29 30 30 31 31 32 33 32 34 36 36 35 37 36 36 38 38 38 38 37 37 38 37 37 37 35 36 37 38 38 41 40 40 40 40 39 38 37 36 35 35 34 34
29 29 30 30 31 31 32 33 33 33 33 32 33 34 34 33 34 34 34 34 35 34 35 34 35 34 35 36 36 36 36 35 35 35 36 35 35 35 35 34 32 31 32
28 29 30 30 30 30 31 31 30 31 30 30 31 32 32 32 32 31 31 32 32 32 32 33 33 33 33 35 35 35 34 33 32 34 34 34 33 35 36 33 30 29 29
28 28 29 30 29 29 30 28 27 28 27 28 28 31 32 32 31 31 30 31 31 30 31 31 32 33 32 35 35 35 33 31 31 32 33 33 33 34 34 32 30 26 26
29 29 29 28 28 29 29 26 25 25 27 28 28 28 29 30 31 30 30 30 30 30 29 29 30 31 32 32 34 34 32 31 30 30 30 32 33 33 33 32 28 26 27
27 28 28 27 29 29 27 24 24 26 27 27 27 26 27 28 28 29 29 28 28 27 27 28 28 29 30 32 32 32 31 31 28 26 28 30 31 31 30 28 28 27 25
26 27 27 27 28 29 30 26 26 26 26 25 25 26 26 26 27 26 26 26 26 26 26 27 27 27 29 29 30 29 28 28 25 26 27 27 27 27 26 26 25 24 23
25 26 26 25 25 27 28 30 28 28 25 24 24 24 25 25 26 26 26 25 24 24 25 25 26 27 28 28 28 27 26 26 25 23 23 23 23 22 22 22 22 21 21
25 25 24 24 23 25 25 26 28 30 28 26 25 24 24 24 25 26 25 25 26 26 24 25 26 26 26 28 29 27 25 24 24 23 22 20 20 19 19 19 19 20 19
23 22 23 23 22 23 23 24 27 28 27 26 25 23 23 23 23 24 24 30 30 31 31 30 28 29 30 31 30 30 28 27 25 21 18 17 17 17 17 17 17 17 17

GFSMW_sfc_temp_102.txt.gz
Temp
59 58 57 57 58 58 58 60 63 67 67 68 66 66 65 66 66 66 66 65 65 65 65 65 64 64 63 64 64 63 61 61 62 60 59 60 61 61 62 63 62 62 61
51 55 55 54 53 52 53 56 60 66 67 68 71 68 68 67 67 66 65 65 65 65 65 64 63 63 63 62 63 62 61 61 61 59 57 54 55 59 61 62 62 61 61
48 50 52 51 50 50 50 53 54 62 66 68 68 63 64 63 64 65 65 65 65 65 65 64 64 63 63 62 62 62 61 59 60 60 58 53 53 55 57 60 61 60 59
48 48 49 49 49 51 51 52 53 54 65 67 67 67 65 63 65 66 66 66 65 65 65 64 63 63 63 62 62 62 62 61 59 60 60 59 57 53 51 56 58 59 59
44 45 46 48 49 50 52 52 51 55 60 66 67 66 64 66 65 66 64 64 64 64 64 63 62 63 62 62 62 61 61 62 61 60 59 57 56 56 53 52 53 56 57
43 44 46 47 47 48 48 50 51 53 57 66 66 65 65 64 62 63 63 62 63 62 62 62 62 62 62 61 61 62 61 60 60 60 59 60 57 54 54 52 55 55 55
40 41 41 42 44 45 46 48 49 49 53 65 66 66 64 63 62 63 63 62 62 61 61 61 61 62 62 62 62 61 60 60 59 60 60 60 60 59 59 57 55 54 54
39 40 41 41 42 43 44 45 46 48 51 63 66 67 65 61 61 63 62 62 61 61 62 61 62 62 61 61 61 60 60 61 60 60 60 60 60 60 58 57 56 52 53
39 39 40 40 41 41 41 42 45 47 51 65 66 63 62 60 60 61 61 61 61 59 60 59 60 60 60 59 60 59 60 60 60 60 60 60 60 60 60 61 60 57 51
37 38 39 39 40 40 41 42 44 46 50 55 62 62 61 61 60 60 59 60 59 59 59 58 58 58 58 60 59 59 59 60 60 60 59 60 60 59 58 59 59 58 56
37 36 37 38 39 39 39 40 43 45 47 50 57 60 60 59 60 59 59 59 59 59 59 59 58 57 57 56 56 56 56 57 58 59 59 59 60 58 59 59 58 57 56
37 36 36 36 37 37 38 38 40 42 44 48 53 59 59 59 58 58 58 58 58 58 58 57 57 56 56 56 56 54 57 57 57 58 58 58 59 58 59 58 57 57 57
35 34 34 34 34 35 36 37 39 41 43 45 52 57 58 58 58 58 58 58 58 58 58 57 57 56 56 56 55 56 56 56 57 57 57 57 58 58 57 58 57 57 57
33 33 33 33 33 34 35 36 37 40 42 42 42 44 50 57 57 58 58 58 58 57 56 58 57 56 55 56 56 56 55 55 53 51 53 55 57 59 59 57 58 57 55
31 32 31 32 32 33 33 35 36 38 40 40 39 38 41 45 50 53 55 55 55 54 52 50 48 47 46 45 46 53 54 52 48 45 44 41 43 47 51 57 57 56 55
30 31 31 31 31 31 32 33 33 35 38 37 37 38 37 38 39 42 44 43 42 42 42 41 41 40 40 38 40 45 48 47 45 42 41 40 39 37 37 38 36 43 55
28 29 29 29 30 30 31 30 32 33 34 35 36 37 36 34 34 36 37 37 37 37 36 36 36 35 37 37 39 39 41 39 39 38 38 38 38 37 36 36 35 35 34
28 28 29 29 29 30 29 30 31 32 31 31 33 34 35 33 33 33 33 33 34 33 34 33 34 35 36 36 36 37 37 35 35 35 35 35 34 35 35 34 32 32 32
27 28 29 29 29 28 29 28 28 29 29 28 29 31 32 32 32 31 31 31 31 31 32 33 33 33 33 35 36 35 34 33 33 34 34 33 33 34 36 32 29 28 27
28 28 28 29 28 28 28 27 26 26 26 27 28 30 30 30 30 30 30 31 31 30 31 31 32 33 32 34 35 35 33 31 31 32 32 34 33 33 32 30 28 25 25
27 28 28 27 28 28 28 24 25 24 26 27 27 28 28 28 29 29 29 29 29 29 29 29 30 30 31 32 33 33 31 31 30 29 30 31 32 32 32 30 27 25 26
26 27 26 26 28 29 27 25 24 25 26 26 26 26 26 27 28 28 28 28 29 28 28 28 28 28 28 30 31 30 30 30 27 26 28 29 31 31 30 28 28 27 25
24 25 25 25 26 26 28 25 25 24 24 24 24 25 26 26 26 25 26 26 27 27 27 27 27 26 28 27 29 29 28 27 25 25 26 27 27 26 26 26 25 24 23
23 24 24 23 23 25 26 27 27 26 25 23 23 23 26 25 25 26 27 26 25 25 26 26 26 27 27 26 26 26 25 25 24 23 23 23 23 22 22 22 22 22 21
23 24 23 22 22 23 23 24 26 28 27 25 24 23 23 24 26 26 27 27 28 28 26 26 27 26 25 27 28 26 24 23 23 22 21 20 20 19 19 19 19 20 20
22 21 21 22 21 22 21 23 26 26 26 24 23 21 21 21 21 22 22 28 29 31 30 30 29 28 30 30 30 29 28 27 25 20 17 16 17 17 17 16 16 17 17

GFSMW_sfc_temp_105.txt.gz
Temp
61 62 61 62 61 62 62 62 62 65 71 73 70 67 66 69 68 69 70 69 69 68 69 68 68 66 66 65 65 64 62 62 64 62 63 64 66 66 63 66 65 65 64
59 59 60 59 58 58 59 60 61 63 66 74 75 74 72 69 70 69 69 70 69 68 69 68 67 66 65 65 65 64 62 62 63 60 59 55 58 61 64 63 64 65 66
53 55 55 56 57 57 56 58 60 60 62 65 74 74 69 68 66 66 66 68 70 69 69 68 67 65 65 65 65 65 65 60 62 63 60 54 55 57 61 62 64 65 64
52 53 52 53 54 54 55 56 56 58 61 64 69 71 69 67 69 71 70 67 69 68 69 68 67 66 66 65 65 66 65 64 60 61 62 62 63 58 56 59 61 65 63
49 49 50 51 53 53 52 53 53 55 58 61 64 70 70 73 74 73 71 68 67 69 68 67 67 67 66 65 65 65 64 63 62 61 61 60 58 59 59 55 56 58 60
47 48 49 50 51 52 51 49 49 51 54 57 60 66 70 71 70 71 69 67 66 66 66 66 66 66 65 65 67 64 64 63 62 62 63 61 58 59 58 58 60 58 57
46 46 46 46 47 46 46 46 46 47 51 53 58 65 67 69 70 70 70 66 64 63 65 65 65 65 65 66 67 64 63 63 62 61 61 62 61 63 65 63 61 58 56
45 45 45 45 44 42 42 43 43 44 49 51 54 65 67 66 69 70 71 68 65 65 66 64 66 66 65 66 67 67 65 62 61 62 62 62 62 62 61 63 60 56 56
43 41 43 43 42 39 40 40 41 44 47 50 53 67 67 65 65 68 70 67 66 65 64 64 65 65 64 65 65 62 63 65 62 61 62 62 63 65 65 62 60 59 53
42 40 41 40 41 39 39 40 41 42 45 48 51 61 65 65 65 65 67 67 65 65 62 63 64 63 64 64 63 62 64 60 60 61 61 61 62 62 63 63 64 62 59
39 40 39 39 39 38 38 38 39 41 43 45 49 53 61 63 62 62 63 63 63 62 62 63 62 62 63 65 63 65 59 59 59 60 60 60 62 60 60 62 62 60 62
38 38 38 37 37 36 36 37 38 39 42 44 47 56 60 60 60 60 60 61 61 62 62 62 61 61 61 62 60 59 59 59 60 63 64 63 61 60 59 59 58 59 59
36 36 36 35 35 35 35 36 37 38 41 43 44 47 48 57 60 59 59 60 59 60 61 60 60 59 58 58 58 60 61 62 63 62 62 58 58 58 58 58 58 59 58
33 34 34 34 33 34 34 34 35 37 39 41 41 40 42 44 49 60 59 59 59 59 59 60 59 59 59 59 60 59 61 59 56 53 49 47 47 51 58 57 57 58 57
32 32 31 32 33 32 32 33 34 35 37 39 39 38 39 40 41 43 48 57 59 56 58 55 50 50 51 48 55 60 58 53 48 47 45 42 40 40 43 57 57 57 56
30 31 31 31 31 31 30 31 32 33 35 36 36 38 38 37 37 37 39 40 41 42 42 41 41 41 41 38 39 47 50 49 46 44 42 42 39 39 37 37 37 38 56
28 29 29 30 30 30 30 29 30 32 32 33 34 35 36 36 35 35 34 34 35 36 36 36 37 36 37 37 38 39 43 41 41 41 42 40 39 38 37 36 35 35 35
28 28 29 29 30 29 30 31 30 29 29 30 31 32 33 34 34 34 32 32 33 32 33 34 35 35 36 36 36 36 37 36 36 36 37 37 35 35 35 33 32 32 32
28 29 30 30 29 29 29 29 29 29 28 28 28 29 30 30 32 32 31 31 31 32 32 33 33 33 34 35 35 35 34 33 33 35 35 35 34 35 36 34 30 29 28
29 28 29 30 29 28 29 27 26 27 26 27 28 29 29 29 29 30 30 31 30 29 30 29 31 32 32 34 35 34 33 31 31 32 32 33 32 33 33 31 29 25 26
28 29 28 27 28 29 29 26 25 25 27 28 29 28 29 29 30 30 30 30 29 29 28 28 28 29 30 31 33 33 30 29 29 29 29 31 32 32 31 30 28 26 28
28 28 28 27 27 29 28 25 24 26 27 28 28 28 29 29 30 30 30 30 30 29 28 28 27 28 28 30 30 30 29 29 26 25 27 28 31 30 30 28 28 28 27
27 28 28 28 28 28 28 26 26 27 27 26 27 29 29 30 30 30 29 29 31 30 29 29 27 27 29 28 29 28 27 28 26 26 26 27 27 27 26 27 26 26 25
26 28 28 27 26 29 29 29 30 29 28 27 26 27 28 28 30 31 31 30 29 29 30 28 28 28 29 29 30 29 28 26 26 25 24 24 24 24 24 25 25 25 26
26 27 26 26 26 29 28 29 31 32 30 29 29 28 28 28 28 28 29 30 30 30 29 29 29 28 26 27 29 29 28 27 25 25 25 24 24 23 23 23 24 25 26
25 25 26 26 25 26 26 27 29 29 28 27 27 26 27 27 27 27 26 28 29 29 30 30 29 29 29 29 29 28 27 26 26 25 23 22 22 23 22 22 22 23 23

GFSMW_sfc_temp_108.txt.gz
Temp
71 71 70 71 71 72 71 71 71 72 74 77 80 80 74 77 81 83 81 79 77 73 71 71 70 69 69 69 70 70 68 67 69 64 63 67 70 70 71 71 70 72 70
68 68 69 69 67 68 68 68 69 70 71 74 78 82 81 80 80 81 79 76 75 73 71 71 69 69 70 69 69 67 64 66 68 63 61 58 60 66 70 68 67 69 74
64 65 65 66 67 66 65 65 67 67 68 69 73 76 81 81 79 77 76 74 74 72 70 71 70 69 71 69 69 66 66 62 64 69 63 56 56 58 64 68 68 71 69
62 63 62 63 63 64 64 65 64 65 66 67 68 70 75 77 80 79 79 73 72 74 71 71 71 71 71 69 70 68 70 69 63 64 69 63 66 63 60 64 68 70 69
59 59 60 61 63 62 61 61 61 61 63 62 61 63 68 77 81 80 76 71 70 71 72 72 72 71 70 70 69 67 70 73 70 65 63 64 63 60 63 65 64 64 68
58 59 60 60 61 60 58 57 56 57 58 57 57 58 60 68 76 79 75 70 69 68 69 71 71 72 69 68 68 71 71 69 72 72 70 67 60 61 60 63 64 67 67
56 56 56 56 56 56 54 53 51 50 53 51 52 55 56 64 69 76 76 72 69 66 67 69 69 69 69 71 70 71 71 71 70 69 70 71 71 70 66 65 66 65 67
55 55 54 54 54 53 51 48 44 44 46 47 49 51 53 58 70 72 71 74 72 68 68 68 70 70 70 68 69 70 71 70 69 67 67 65 64 65 64 62 60 55 57
53 53 53 52 50 49 47 41 40 41 43 44 46 49 51 56 69 75 70 70 73 70 68 67 67 68 67 66 68 68 69 68 67 67 65 64 65 67 68 64 63 58 53
51 51 51 50 47 45 43 40 39 39 41 43 45 48 50 56 71 74 70 69 73 71 70 68 65 65 65 65 67 68 69 66 67 66 66 64 66 65 65 68 66 67 60
49 50 50 49 47 45 42 39 37 37 39 42 44 46 53 65 71 69 69 69 70 69 68 67 64 64 64 64 64 65 67 66 66 66 67 63 68 63 63 66 66 64 63
48 48 48 47 44 44 41 36 35 34 38 41 44 46 50 55 62 64 67 67 65 65 64 64 63 63 64 65 65 65 66 66 65 64 62 64 61 60 62 61 62 63 63
45 46 45 43 39 38 35 34 35 35 36 40 43 43 45 46 50 60 61 62 62 62 62 62 62 62 63 63 65 66 65 65 66 65 66 66 66 64 66 65 60 60 62
42 42 42 41 37 35 34 33 34 35 36 38 39 40 41 43 44 47 53 59 60 60 60 61 62 62 63 65 65 63 62 62 62 60 61 59 56 53 53 56 59 58 58
37 37 39 38 36 34 32 32 33 33 35 35 35 36 40 40 39 40 42 44 50 56 58 58 58 57 58 56 63 64 63 59 56 53 52 48 42 39 40 49 54 57 56
32 35 36 36 34 34 32 31 31 31 34 33 32 33 36 38 38 37 38 38 39 40 42 43 45 44 42 39 40 55 58 53 51 47 47 45 42 40 36 37 36 36 49
31 32 33 33 33 33 32 31 31 31 31 31 33 33 34 33 35 36 35 34 34 35 36 36 37 37 38 38 39 40 44 42 42 43 44 44 42 41 41 37 36 35 35
30 30 32 32 32 32 32 33 32 31 30 29 30 32 32 32 33 33 32 32 31 32 32 32 33 34 35 36 36 36 36 35 36 36 37 37 37 36 37 35 34 32 32
29 30 31 31 31 31 31 31 31 31 31 30 30 31 31 31 31 31 30 31 30 29 29 31 32 32 33 35 35 35 33 32 32 33 34 34 34 34 36 34 31 31 31
30 29 29 30 31 30 31 30 30 30 29 30 30 31 32 32 31 31 30 30 30 28 29 28 29 32 31 33 34 34 33 30 30 31 32 33 32 33 33 32 30 26 26
30 32 30 29 29 30 31 29 29 28 30 31 31 31 32 32 32 32 32 32 30 30 28 27 27 28 29 30 32 32 31 30 29 28 28 30 32 32 31 31 28 27 29
30 33 33 30 31 31 31 29 28 30 31 31 31 31 32 32 32 32 32 32 32 31 30 29 28 28 28 30 30 30 29 29 27 26 27 28 30 30 30 29 29 29 29
32 36 35 34 33 33 33 29 30 31 31 31 31 31 31 32 32 31 32 32 32 31 30 29 29 29 31 30 30 29 28 28 28 28 27 27 28 28 27 28 28 28 28
32 35 34 33 33 35 34 35 35 34 33 31 31 32 31 30 31 34 33 31 31 31 30 30 29 29 29 29 31 31 31 29 29 29 29 28 27 27 28 29 29 29 29
33 34 33 33 32 34 34 35 37 38 37 36 35 34 34 33 30 28 29 30 29 29 29 29 29 27 26 27 29 29 28 29 29 31 31 30 29 27 27 28 30 31 31
31 32 33 32 32 31 31 32 33 33 32 32 33 32 33 33 33 33 29 28 28 29 29 29 30 29 28 28 28 28 27 28 30 31 28 27 28 28 28 27 27 29 29

GFSMW_sfc_temp_111.txt.gz
Temp
79 77 76 76 75 75 75 74 73 74 75 76 78 81 82 84 86 87 86 86 85 83 82 82 77 76 72 75 72 73 70 69 77 70 70 70 71 71 70 73 73 74 73
75 73 73 73 72 72 72 71 72 73 73 74 76 77 79 84 86 86 86 86 84 81 80 79 76 76 72 72 70 69 67 68 72 68 66 63 66 67 72 72 72 74 71
70 70 69 70 70 70 69 69 70 71 71 71 73 75 77 78 80 84 84 85 84 82 78 75 76 77 73 71 70 69 68 67 67 71 68 59 60 62 70 70 71 72 71
68 68 68 68 68 68 68 68 68 68 69 69 69 68 68 71 80 84 85 84 83 80 77 76 73 77 73 71 70 70 70 72 64 68 73 74 74 66 67 70 72 71 69
65 66 66 67 68 68 66 65 64 65 65 64 64 64 64 68 73 78 81 82 81 79 73 73 74 74 74 73 72 69 70 71 70 68 66 69 69 71 69 67 68 70 71
65 65 66 66 66 66 63 62 60 60 60 59 58 56 56 59 64 69 74 81 82 79 73 72 70 73 73 71 72 72 71 72 72 72 69 66 64 63 67 66 69 69 70
63 63 63 63 62 61 60 59 57 54 55 54 54 53 53 54 56 62 70 73 77 75 72 69 69 69 71 72 74 72 68 72 72 72 74 73 70 72 70 68 69 69 69
61 61 61 61 60 58 57 55 53 50 51 50 50 49 48 51 55 60 66 72 77 78 75 68 68 70 70 72 72 73 69 69 70 72 73 74 74 74 74 71 67 61 65
60 59 60 59 58 56 54 51 48 47 47 46 46 45 46 48 50 54 61 69 75 76 74 69 67 68 68 69 70 71 71 69 68 70 71 72 72 73 71 71 67 63 55
58 58 58 57 56 54 53 49 46 44 44 44 41 43 44 47 49 52 55 65 75 76 74 72 68 66 67 67 68 69 70 70 68 69 68 68 69 69 70 71 69 68 64
56 56 56 55 54 51 50 47 42 42 40 39 39 41 44 47 50 55 58 67 72 74 72 69 67 66 66 66 66 68 68 67 66 67 67 67 69 68 67 68 68 66 66
55 55 54 53 50 47 45 42 40 38 36 36 37 40 44 45 48 51 62 68 71 73 72 69 67 66 65 65 66 68 69 66 66 66 66 68 68 68 68 67 67 66 67
52 52 51 49 46 44 42 40 38 35 34 33 36 38 41 42 43 46 50 53 67 71 69 67 66 65 64 63 66 69 67 65 66 67 66 67 68 66 66 66 64 66 66
46 47 47 46 43 42 40 38 36 35 34 34 36 35 36 38 40 43 44 47 50 59 61 62 62 63 63 63 64 67 68 65 65 64 65 63 62 62 62 61 63 63 62
43 42 41 40 41 39 37 37 35 33 33 34 34 32 35 36 38 39 39 41 42 44 46 53 53 57 59 58 62 65 65 61 58 56 54 47 43 39 40 49 53 56 57
39 38 38 36 35 34 35 35 35 32 32 32 32 33 34 33 34 36 36 36 37 37 38 38 40 41 45 43 48 57 59 57 53 48 46 43 41 38 37 37 36 36 42
34 34 32 32 32 32 33 33 34 34 32 32 32 33 33 32 32 34 33 32 33 35 35 36 36 35 38 40 43 43 45 43 42 45 45 43 42 42 43 37 35 34 34
31 31 31 32 32 32 33 33 33 33 33 32 32 32 32 32 32 31 30 31 31 30 30 31 33 34 33 35 36 36 37 35 35 36 38 37 37 37 39 36 33 32 32
30 30 31 31 32 32 32 32 32 32 33 31 32 32 32 32 32 30 30 29 29 29 29 29 30 31 32 34 34 33 33 32 32 33 34 34 33 35 37 34 32 30 30
31 30 30 31 31 31 33 32 31 31 30 31 31 32 33 32 32 32 32 31 30 29 29 28 29 30 30 32 33 32 32 30 30 30 31 33 32 33 33 31 29 26 27
31 33 32 31 31 32 33 31 31 30 31 32 32 32 32 32 32 32 32 32 32 32 31 29 29 28 29 30 31 31 29 28 28 28 28 30 32 32 32 31 29 27 29
33 37 36 33 33 33 32 30 30 32 33 32 32 31 32 32 32 32 32 32 32 32 31 30 29 30 30 31 30 30 30 29 26 25 27 29 31 31 31 30 30 30 29
36 39 38 37 37 37 37 32 32 34 34 34 33 32 31 31 32 31 31 32 32 31 30 29 28 28 29 30 31 31 30 30 28 28 29 30 31 31 30 30 30 30 29
37 39 38 36 35 37 37 38 39 38 36 35 35 35 34 30 30 33 32 30 28 30 29 27 27 27 27 27 28 29 30 30 31 31 32 30 30 30 30 31 31 31 31
37 38 36 35 34 36 36 37 38 40 38 37 36 37 37 36 32 28 28 30 28 28 27 28 26 25 24 25 28 28 28 29 30 31 32 31 31 30 31 31 31 32 32
35 36 36 35 33 33 32 33 35 35 34 34 34 34 35 35 35 35 30 28 28 28 28 28 28 28 28 29 30 30 31 32 32 31 28 27 27 27 29 29 29 30 30

GFSMW_sfc_temp_114.txt.gz
Temp
78 76 74 73 73 72 71 70 69 69 69 69 68 69 68 73 75 79 78 78 78 78 77 76 73 72 72 72 71 70 68 67 69 66 65 65 67 67 65 66 66 68 68
74 72 72 70 69 68 67 67 68 67 67 68 67 67 68 69 71 71 74 79 78 77 77 76 74 73 71 71 71 69 65 67 67 63 62 59 61 63 65 65 65 65 66
69 69 69 68 67 67 65 65 65 65 65 65 66 67 67 68 69 71 74 76 76 77 76 75 75 72 71 70 71 69 67 66 67 68 61 56 55 59 63 64 66 65 64
68 68 67 66 65 64 64 64 63 63 64 62 60 59 60 60 64 66 70 72 75 77 75 74 74 72 71 69 69 70 69 69 65 66 69 65 63 57 56 62 64 65 64
65 64 64 65 66 64 61 60 61 61 60 58 57 56 55 57 59 60 61 65 69 74 76 74 72 72 71 70 69 69 68 69 67 66 65 65 64 63 59 56 59 63 66
64 64 65 65 63 62 59 58 57 57 56 55 54 52 52 53 53 55 56 59 64 69 73 74 71 69 70 69 69 69 68 69 69 67 66 65 63 62 59 57 58 60 61
60 61 60 60 59 58 57 56 54 52 52 51 51 51 50 50 49 51 53 55 59 62 67 71 70 69 70 70 70 69 68 68 68 67 66 65 65 65 64 60 59 59 60
59 59 59 58 57 56 54 53 50 48 48 48 47 47 47 47 48 49 51 53 56 61 65 69 70 68 69 69 69 68 69 68 67 66 66 66 66 66 66 64 61 56 57
57 57 58 56 55 53 51 49 47 45 45 44 44 43 44 45 45 47 49 50 53 58 60 64 68 68 68 68 69 68 67 67 66 65 65 66 66 67 67 65 64 58 53
56 55 55 54 53 51 49 46 45 43 42 41 41 41 42 43 45 47 47 49 51 54 57 61 68 68 67 67 67 67 68 65 66 64 64 62 61 63 64 64 62 60 57
53 53 53 53 51 49 47 44 42 40 38 38 38 38 41 42 44 45 46 49 52 53 55 60 67 67 66 67 66 67 67 67 66 65 64 62 60 63 62 63 63 61 60
52 52 51 50 48 45 43 41 39 37 36 36 37 37 39 40 41 42 45 47 50 58 57 62 67 68 66 65 66 66 66 66 64 64 64 63 64 62 63 63 61 60 60
49 48 47 45 44 42 40 39 38 36 35 35 36 36 36 37 38 40 42 44 48 51 59 65 66 67 67 65 65 66 65 65 65 65 63 63 63 62 63 62 60 60 61
45 43 42 41 39 38 38 36 36 36 35 35 35 34 35 35 35 38 39 39 42 43 45 55 63 65 64 65 65 65 64 65 65 63 61 60 60 59 58 58 57 57 58
41 40 38 37 36 35 35 35 34 34 34 33 33 33 34 35 35 35 36 36 35 38 41 41 42 45 47 51 60 64 63 63 56 51 47 43 41 40 43 51 46 47 51
36 36 36 34 33 33 33 33 33 33 34 33 32 33 33 33 33 33 33 34 34 34 35 37 38 38 39 38 43 57 61 55 49 43 41 41 39 37 36 36 35 35 38
33 32 31 31 31 31 32 31 32 33 33 33 33 33 33 32 31 31 31 30 30 32 31 33 35 35 36 37 40 42 45 45 46 44 42 41 41 39 36 35 34 33 33
31 30 30 30 31 32 32 32 32 32 32 32 32 33 33 32 32 32 30 29 29 29 29 30 31 33 34 37 36 36 36 36 35 34 35 36 36 38 36 33 31 30 31
29 29 30 30 31 31 32 32 31 31 31 30 31 31 32 32 32 32 31 31 30 29 28 29 29 29 31 34 34 33 32 32 31 32 33 33 33 36 37 32 29 28 28
30 29 30 31 30 30 31 31 30 30 29 30 30 31 31 31 31 31 32 32 32 30 30 30 29 30 29 32 33 32 31 29 29 30 31 33 32 33 33 31 29 25 25
31 32 32 31 31 33 33 30 30 29 31 31 31 31 32 30 30 31 31 31 31 30 29 28 28 29 30 30 32 31 28 27 27 28 29 31 32 32 32 31 28 27 28
32 36 34 33 33 33 31 29 29 31 33 33 30 29 29 31 29 29 29 31 29 28 27 27 26 27 28 31 32 32 31 30 27 27 29 30 32 32 32 31 31 30 28
35 38 36 35 35 35 35 31 29 33 33 34 33 29 28 28 29 26 25 26 28 26 25 25 24 24 26 27 30 31 31 31 29 30 31 31 31 31 30 31 31 30 29
35 37 35 33 32 34 34 34 36 36 34 33 33 33 32 27 27 28 26 24 24 24 25 23 22 23 24 25 27 28 29 29 30 30 30 30 30 29 29 29 30 30 29
36 36 33 31 31 32 32 34 35 36 34 33 32 33 33 32 26 25 25 24 24 25 22 23 23 22 22 25 30 30 28 29 29 29 27 26 26 26 26 26 27 28 29
34 34 33 31 30 30 30 31 33 33 31 31 31 31 31 31 31 30 25 29 29 29 29 29 27 25 29 31 32 32 32 32 31 27 24 24 24 23 24 24 24 25 27

GFSMW_sfc_temp_117.txt.gz
Temp
65 65 64 63 62 61 62 61 61 60 61 61 59 61 60 63 64 63 65 67 70 74 74 70 68 68 71 71 66 65 67 64 65 63 62 63 63 63 63 64 64 64 64
63 63 61 59 58 58 58 59 59 59 59 59 59 59 59 59 63 64 64 64 65 70 70 71 70 70 67 66 67 65 62 64 66 61 59 59 58 61 63 62 64 64 64
61 61 60 56 56 55 54 56 56 56 56 56 56 56 57 58 58 60 62 63 64 66 68 71 72 69 68 66 67 66 64 64 63 65 60 56 54 56 59 62 63 63 62
59 59 57 55 54 52 54 54 55 54 56 53 52 50 49 49 53 54 56 57 60 62 64 66 70 70 70 67 66 67 67 65 63 61 64 60 58 54 53 58 61 62 63
56 55 55 54 53 52 51 50 51 52 51 50 49 48 47 49 51 52 52 53 56 58 61 62 64 69 68 67 67 65 66 65 64 65 65 63 59 59 56 53 57 59 61
55 55 55 54 51 50 49 47 48 48 48 47 47 45 44 45 46 47 47 49 52 54 57 60 61 65 69 67 66 65 65 68 68 67 65 65 64 62 56 54 55 59 58
53 52 51 49 49 46 45 47 45 44 44 44 44 45 45 45 45 46 47 47 48 50 52 55 58 61 67 69 68 65 65 66 67 67 66 66 66 64 64 58 55 55 57
52 51 48 47 46 45 42 41 41 41 41 41 40 42 43 43 44 44 46 47 48 49 51 52 54 57 60 67 68 67 66 67 66 65 65 66 65 63 61 65 56 54 54
48 49 47 46 44 43 41 39 39 39 39 38 38 38 40 41 41 43 45 45 47 49 50 50 52 55 58 63 67 66 66 66 66 66 65 64 64 64 62 64 63 59 53
47 48 45 44 43 42 41 40 38 37 37 36 36 38 38 40 41 42 42 45 47 48 49 49 50 52 56 61 65 64 66 66 66 65 65 64 63 61 61 60 61 60 56
44 44 44 43 41 40 39 38 37 36 35 35 36 37 38 39 40 40 41 43 45 46 48 50 51 52 54 59 65 64 66 66 66 65 64 62 61 61 60 60 59 60 59
43 42 41 40 38 37 37 36 35 34 35 36 36 37 38 38 38 38 40 42 42 44 46 50 53 53 54 58 64 64 67 65 65 65 63 62 61 60 60 60 59 60 60
41 39 38 37 36 36 36 35 34 34 35 35 35 36 36 36 36 37 38 39 40 42 44 45 49 55 56 58 64 65 65 65 65 65 63 64 61 59 59 61 60 61 61
38 37 35 35 35 35 34 34 33 35 35 35 34 34 34 34 34 35 36 36 38 38 39 43 43 46 49 58 63 64 65 65 65 64 63 63 61 60 60 61 60 59 59
35 34 33 33 32 33 32 32 33 34 34 34 33 33 33 33 33 33 33 34 35 35 36 37 39 40 41 44 49 59 64 63 58 51 48 47 48 50 54 56 53 55 54
32 32 32 32 31 31 31 32 32 32 33 32 32 32 33 33 32 32 32 32 31 32 33 32 34 35 38 38 41 51 59 53 47 42 40 40 40 40 39 38 36 41 48
30 30 30 29 30 30 31 30 31 32 31 31 31 32 32 32 32 32 31 30 30 31 31 31 32 32 33 35 36 37 38 38 41 43 43 40 40 36 35 34 34 34 34
28 26 27 28 29 30 31 32 32 31 30 29 30 31 31 31 31 32 31 30 30 29 30 30 31 31 32 34 34 34 35 33 34 34 37 38 36 36 35 33 31 30 30
26 27 28 29 29 29 31 31 30 30 29 27 28 29 29 28 30 29 29 30 29 28 28 29 30 30 31 33 33 33 32 32 32 32 32 34 32 34 35 31 28 27 27
28 28 29 30 30 31 32 30 30 30 29 27 27 28 29 27 27 28 27 28 29 28 28 27 28 30 30 33 32 31 30 29 30 31 31 32 32 32 32 29 28 25 25
30 31 30 29 30 31 31 28 29 28 29 29 28 27 27 27 26 26 28 27 27 27 26 26 26 27 29 30 33 32 29 29 29 29 29 31 32 32 31 31 28 27 28
30 33 31 30 31 31 30 27 28 30 30 27 26 26 26 26 25 24 24 25 25 24 24 24 24 26 27 31 32 32 32 31 29 28 29 31 32 32 32 31 31 30 29
31 34 33 31 32 32 31 27 28 29 30 30 29 25 25 25 25 23 22 22 23 22 22 22 22 23 26 28 31 31 31 30 28 29 30 30 30 30 29 31 31 30 29
32 33 31 29 28 30 30 30 31 31 30 29 29 29 26 24 25 25 24 23 22 21 21 22 22 24 25 27 29 29 28 28 27 27 27 27 27 26 26 27 28 28 28
32 32 29 27 27 29 28 29 30 31 30 29 29 29 29 27 24 25 24 24 25 26 22 21 22 23 24 27 30 30 27 26 27 26 25 24 24 23 24 24 25 26 27
31 29 27 26 25 25 25 27 29 29 28 28 28 27 27 27 27 24 23 31 30 30 30 30 28 25 30 31 31 31 30 29 28 23 21 20 20 20 21 21 22 23 24

GFSMW_sfc_temp_120.txt.gz
Temp
61 59 59 57 57 57 56 56 55 55 55 55 53 53 53 56 57 59 61 62 62 64 64 68 69 68 67 67 67 67 64 63 64 62 60 61 62 62 63 64 64 63 62
57 57 55 54 53 53 54 54 54 52 52 53 52 51 51 52 56 56 56 58 57 58 61 61 64 68 68 68 65 67 63 65 64 62 58 57 59 60 62 62 63 63 63
55 54 52 50 51 50 51 51 51 50 49 50 50 50 51 51 51 51 53 54 55 56 57 59 61 63 66 67 66 66 66 63 62 63 60 54 55 56 58 61 62 62 62
53 52 50 48 48 47 48 49 49 48 49 48 46 44 43 43 46 48 50 51 53 53 55 56 57 58 61 64 66 66 65 65 62 63 63 60 58 55 53 58 62 62 61
49 48 48 47 47 47 45 46 47 46 45 44 44 42 41 43 44 46 46 47 49 51 53 53 55 56 58 61 64 63 64 64 63 62 63 59 58 57 54 52 57 61 61
50 49 50 48 45 45 44 43 43 42 43 42 41 40 39 40 41 41 42 44 46 48 49 51 51 54 56 59 62 65 64 63 63 64 64 64 59 57 55 53 53 57 61
47 46 45 45 44 42 39 42 40 39 40 39 38 38 38 39 40 42 43 44 44 45 46 47 48 49 52 56 58 62 64 63 63 64 64 65 66 62 59 56 54 54 56
45 43 43 42 43 41 39 38 37 37 37 37 36 37 37 37 39 42 43 43 44 44 46 46 47 48 49 51 54 57 63 64 63 65 65 64 65 64 61 62 56 52 54
42 42 42 41 40 39 38 37 35 35 36 35 36 36 37 38 39 40 42 42 44 46 47 48 48 49 49 50 52 54 58 64 64 64 65 65 65 64 64 64 59 59 50
41 40 39 39 38 38 36 35 35 35 35 36 36 37 37 39 40 40 39 41 42 44 44 45 46 47 49 50 51 52 57 62 63 65 63 63 64 63 63 64 63 61 59
39 39 38 38 37 36 35 34 34 35 35 35 36 37 37 38 39 38 39 40 41 42 42 43 44 46 47 50 51 52 54 59 62 65 65 64 63 62 62 62 62 61 59
36 36 36 35 34 34 33 33 34 34 35 36 37 36 37 37 36 36 37 38 38 40 40 42 43 46 47 50 51 52 54 57 61 62 63 64 64 63 62 61 61 61 60
34 33 32 32 33 34 32 33 34 34 35 35 35 35 35 35 34 34 35 36 36 38 39 39 41 43 45 46 54 53 53 57 62 63 62 63 63 62 62 62 60 58 59
34 33 32 32 33 32 32 32 33 34 34 33 33 33 33 34 34 34 34 34 35 35 36 37 38 39 41 42 47 54 54 58 63 62 63 64 63 63 61 60 59 58 58
32 32 31 31 31 31 32 32 32 32 32 32 31 31 33 33 34 33 32 32 33 34 34 35 35 37 37 39 39 48 57 59 60 58 59 61 61 55 57 59 59 59 58
30 31 30 30 29 30 30 30 30 30 31 30 30 30 31 32 31 32 31 31 30 31 32 32 33 33 36 35 38 44 44 45 44 43 43 43 44 46 44 42 41 52 58
28 28 27 27 28 28 29 29 29 30 29 28 29 29 28 28 30 30 30 29 28 29 28 30 32 32 32 34 35 36 36 37 37 39 41 39 39 39 40 38 38 36 36
26 26 26 26 27 28 29 31 31 28 27 26 26 28 27 26 28 28 27 28 28 27 27 28 30 31 32 33 34 35 33 33 32 32 32 35 36 35 35 36 34 33 32
24 24 24 23 26 29 30 30 30 30 28 25 25 26 26 24 25 25 25 26 26 26 26 27 28 29 31 34 33 33 32 31 30 31 32 33 32 34 34 31 30 29 27
22 23 26 29 30 30 31 29 29 29 26 26 25 26 25 23 22 23 24 25 25 25 26 26 27 30 30 33 33 31 31 29 30 31 31 33 32 32 32 30 28 25 25
27 30 29 28 28 30 30 27 28 26 27 27 27 25 25 24 23 23 23 23 24 25 25 26 27 27 30 30 32 32 29 28 28 28 28 31 32 33 32 31 28 27 28
29 30 29 28 29 29 28 26 26 28 28 26 25 25 25 25 24 23 23 23 22 23 24 25 25 26 28 31 32 31 30 30 27 26 27 29 31 32 32 30 31 30 29
28 30 28 28 28 30 29 25 26 27 28 28 26 23 25 25 24 23 23 23 23 22 22 23 24 24 26 27 30 30 30 28 26 26 28 29 29 28 27 29 29 28 28
27 28 27 26 26 28 29 28 29 29 27 27 27 28 26 24 25 25 24 23 23 23 21 21 23 24 25 25 26 26 25 26 25 25 25 25 26 26 25 25 26 26 26
27 28 26 25 24 25 25 26 29 30 29 28 28 27 27 26 23 24 24 23 25 26 24 21 22 22 23 25 28 27 24 24 24 23 22 21 21 21 21 22 23 24 25
27 26 25 24 23 24 23 24 27 28 27 27 26 25 25 24 25 23 23 28 28 29 30 30 26 24 28 29 29 29 28 27 26 21 18 18 19 18 19 19 20 21 22

GFSMW_sfc_temp_123.txt.gz
Temp
54 53 53 52 52 52 52 51 50 50 51 50 48 48 47 50 51 53 55 56 55 57 58 60 61 64 64 64 66 66 65 64 63 61 61 61 61 63 65 65 64 63 62
50 51 50 49 48 48 49 48 48 47 48 48 46 47 46 48 50 50 51 52 52 55 56 56 59 60 61 64 66 65 64 63 63 61 59 59 60 61 62 63 63 63 63
47 48 48 46 45 44 44 46 45 46 45 46 46 46 46 47 47 46 47 49 50 51 51 53 54 55 58 59 61 64 63 62 62 64 61 55 55 57 59 61 62 62 62
45 45 44 43 44 44 45 44 45 44 45 44 42 40 39 39 42 43 45 46 48 49 50 51 51 52 54 55 58 62 63 62 60 63 63 62 59 55 54 59 62 62 62
44 42 42 42 43 43 42 42 42 42 42 41 40 39 37 39 41 42 42 43 45 47 48 48 48 49 51 53 55 57 61 64 63 63 60 61 60 59 56 55 58 61 63
45 45 46 46 43 42 41 42 40 40 39 38 37 36 35 35 36 38 39 41 44 45 46 46 46 46 48 49 52 55 57 62 64 62 62 61 59 58 57 56 57 59 61
43 42 41 41 41 40 39 40 38 37 37 36 36 35 35 35 36 37 38 39 42 44 44 44 44 45 47 48 48 49 51 54 61 62 61 62 62 62 62 60 59 56 57
41 39 38 38 37 38 38 36 36 35 36 37 37 38 38 38 39 40 39 40 41 43 45 45 46 47 48 49 50 49 50 52 55 62 62 62 63 64 63 62 59 54 54
40 39 38 37 36 36 36 34 34 35 36 36 37 37 38 38 38 40 40 40 42 43 44 44 44 45 46 47 48 48 48 51 53 57 62 62 63 64 64 64 62 60 56
39 38 37 37 37 35 36 36 35 35 36 37 37 37 37 38 39 39 38 39 40 41 41 42 42 43 44 46 47 48 49 49 51 55 61 62 63 63 63 63 62 62 62
36 36 36 36 36 35 33 34 35 35 35 35 36 37 37 37 37 36 37 37 38 38 39 40 41 41 42 45 46 47 49 49 51 53 58 62 63 62 62 62 62 61 62
32 32 32 33 34 32 34 33 34 33 34 35 34 35 36 36 36 35 36 36 36 37 37 38 39 40 42 43 44 45 49 50 51 52 53 61 63 61 62 61 62 61 60
31 30 31 32 32 32 33 33 33 33 33 34 33 33 34 34 34 34 34 35 35 35 36 37 37 37 39 40 42 44 45 48 51 53 54 59 62 60 60 61 61 61 60
32 33 32 31 32 32 32 32 32 33 32 33 32 30 31 32 32 33 33 33 33 32 33 35 36 36 37 38 39 40 43 46 54 54 55 59 62 61 61 60 61 61 60
31 31 31 30 30 31 31 31 31 31 31 29 29 28 29 30 31 30 31 31 31 31 32 32 34 35 36 37 36 40 42 44 52 52 50 48 48 49 57 61 61 60 58
30 30 30 29 28 29 29 28 27 28 28 27 27 27 28 28 28 28 28 29 29 29 29 29 31 32 34 35 36 37 39 41 41 41 40 40 39 42 43 42 43 51 57
28 27 27 28 28 28 28 25 23 25 25 24 25 26 26 25 25 27 26 26 26 27 27 28 30 30 32 34 35 34 34 34 34 35 36 36 37 38 40 39 37 35 35
26 26 26 26 24 22 23 26 25 26 24 23 23 24 24 24 24 24 24 24 25 25 26 27 28 29 31 33 33 33 32 32 32 32 33 33 33 34 35 33 32 31 33
22 24 25 21 21 24 28 29 28 27 25 24 23 24 23 22 22 22 22 23 24 25 25 26 26 28 29 32 32 31 30 30 30 32 33 32 32 34 36 33 30 30 29
24 26 26 25 28 28 30 28 27 26 24 24 24 24 24 22 21 22 22 23 24 24 26 26 26 28 26 32 32 30 28 27 28 29 30 32 32 33 32 30 29 28 27
28 29 27 26 27 29 29 26 26 25 25 26 25 24 24 24 23 23 24 23 23 24 25 25 26 26 28 27 31 31 26 26 26 26 27 29 32 32 32 32 29 28 30
28 28 27 26 28 28 27 25 24 26 27 25 25 24 24 24 24 23 24 24 23 22 23 24 24 25 26 29 29 30 29 27 24 24 25 27 30 30 30 29 30 30 29
27 28 27 26 27 28 28 24 24 27 27 27 24 23 24 24 24 22 22 24 24 21 21 22 22 23 24 25 28 28 28 26 22 24 26 28 28 28 26 28 28 27 26
26 26 26 25 25 27 27 28 29 28 27 26 26 26 26 24 24 24 24 23 23 22 20 19 20 22 23 24 24 24 23 23 23 23 23 23 24 23 23 23 24 24 24
26 27 26 25 24 25 25 26 28 29 29 27 27 26 26 25 23 22 23 23 24 26 22 20 20 20 19 23 27 26 22 22 21 21 20 19 19 19 19 20 21 21 22
26 25 25 24 23 24 23 24 26 27 26 26 25 24 24 23 22 21 20 27 28 28 28 28 25 22 26 27 26 26 26 25 24 18 15 15 15 16 16 16 17 18 18